Regional Weather Roundup
Issued by NWS Huntsville, AL

Home | Current Version | Previous Version | Text Only | Print | Product List | Glossary On
Versions: 1 2 3 4 5 6 7 8 9 10 11 12 13 14 15 16 17 18 19 20 21 22 23 24 25 26 27 28 29 30 31 32 33 34 35 36 37 38 39 40 41 42 43 44 45 46 47 48 49 50
000
ASUS44 KHUN 021510
RWRHUN

WEATHER ROUNDUP FOR THE TENNESSEE VALLEY
NATIONAL WEATHER SERVICE HUNTSVILLE AL
1000 AM CDT THU OCT 02 2014

ALZ001>004-021600-
NORTHWEST ALABAMA

CITY           SKY/WX    TMP DP  RH WIND       PRES   REMARKS
COURTLAND HCN    N/A     75 N/A N/A S6          N/A
RUSSELLVILLE     N/A     79 N/A N/A MISG        N/A
SHOALS AIRPORT FAIR      80  66  62 S9        30.05F
SHOALS TVA RES   N/A     77 N/A N/A MISG        N/A
$$

ALZ005>007-016-021600-
NORTH CENTRAL ALABAMA

CITY           SKY/WX    TMP DP  RH WIND       PRES   REMARKS
CULLMAN AG STN   N/A     75 N/A N/A S3          N/A
DECATUR AP     FAIR      80  65  59 S8        30.07S
HUNTSVILLE AP  FAIR      80  64  58 SE7       30.07S
HUN NWS/UAH      N/A     80  63  56 SE6         N/A
MERIDIANVILLE  FAIR      77  59  53 SE6       30.08S
REDSTONE ARSN  SUNNY     79  64  61 SE9       30.08S
VINEMONT AP    FAIR      76  66  70 S7        30.11R
$$

ALZ008>010-021600-
NORTHEAST ALABAMA

CITY           SKY/WX    TMP DP  RH WIND       PRES   REMARKS
ALBERTVILLE    FAIR      77  68  73 S6        30.09F
FORT PAYNE     FAIR      75  59  57 CALM      30.10S
SCOTTSBORO AP  FAIR      73  64  73 NE3       30.11S
SCOTTSBORO HCN   N/A     70 N/A N/A MISG        N/A
VALLEY HEAD      N/A     73 N/A N/A MISG        N/A
$$

TNZ076-096-097-021600-
SOUTHEASTERN MIDDLE TENNESSEE

CITY           SKY/WX    TMP DP  RH WIND       PRES   REMARKS
FAYETTEVILLE   SUNNY     75  63  64 S8        30.08F
TULLAHOMA      MOSUNNY   75  63  64 S7        30.10S
WINCHESTER     SUNNY     79  64  61 S9        30.09F
$$

...SURROUNDING SITES...

CITY           SKY/WX    TMP DP  RH WIND       PRES   REMARKS
ATLANTA        FAIR      76  64  66 S7        30.13S
ANNISTON       FAIR      79  66  64 CALM      30.09F
BIRMINGHAM     FAIR      78  67  68 SE7       30.09F
CHATTANOOGA    FAIR      74  61  63 VRB3      30.12S
CORINTH        PTSUNNY   77  66  69 S6        30.01R
DALTON         FAIR      73  64  73 CALM      30.13S
GADSDEN        FAIR      75  61  60 CALM      30.09F
GOLDEN TRNGL   PTSUNNY   77  68  73 S8        30.01S
HALEYVILLE     FAIR      76  67  73 S9        30.09R
JACKSON TN     CLOUDY    79  70  73 S9        29.99R
LEWISBURG      PTSUNNY   75  64  68 S6        30.06S
MEMPHIS        PTSUNNY   79  71  76 S7        29.95F
MURFREESBORO   FAIR      79  62  55 SW9       30.05F
NASHVILLE      FAIR      79  64  60 S10       30.05F
OXFORD MS      CLOUDY    73  72  94 S6        30.00F
ROME           FAIR      75  64  68 CALM      30.11S
SAVANNAH       SUNNY     81  66  61 S7        30.01F
TUPELO         CLOUDY    73  68  84 S8        30.00F
TUSCALOOSA     PTSUNNY   80  69  69 S8        30.05S
$$

...GULF COAST WEATHER...

CITY           SKY/WX    TMP DP  RH WIND       PRES   REMARKS
GULFPORT       PTSUNNY   84  76  76 SE9G17    30.01R HX  93
PASCAGOULA     FAIR     N/A N/A N/A S9        30.02S
MOBILE         PTSUNNY   81  76  84 SE10      30.04S
GULF SHORES    CLOUDY    85  76  74 SE12      30.04R HX  94
PENSACOLA      PTSUNNY   82  73  74 SE10      30.04R
DESTIN         FAIR      83  75  77 SE10      30.06R HX  90
PANAMA CITY    FAIR      81  78  90 SE7       30.07R HX  90
APPALACHICOLA  FAIR      85  75  72 E8        30.06R HX  93
$$



USA.gov is the U.S. government's official web portal to all federal, state and local government web resources and services.